This demonstration page uses our WeatherBlox Daily Observations layout. Learn more.

Left ArrowRight Arrow

39.01783, -85.05884

Hourly Observations for April 15, 2018

Temp ( °F °C ) Dew Point ( °F °C ) Humidity (%) Winds ( mph kmh ) Pressure ( in mb ) Visibility ( mi km ) Precip ( " mm )
12:52 am 00:52 Cloudy with Rain 60 15.6 58 14.4 93 93 SSE 14 22 29.80 1009 5 8 0.11 2.79
1:52 am 01:52 Cloudy with Light Rain 60 15.6 58 14.4 93 93 S 12 19 29.77 1008 7 11 0.08 2.03
2:29 am 02:29 Cloudy with Light Rain 60 15.6 58 14.4 93 93 SSE 12 19 29.74 1007 9 14 0.04 1.02
2:52 am 02:52 Cloudy with Light Rain 60 15.6 58 14.4 93 93 SSE 14 22 29.75 1007 7 11 0.05 1.27
2:59 am 02:59 Cloudy with Light Rain 60 15.6 58 14.4 93 93 SSE 13 20 29.74 1007 7 11 0.01 0.25
3:02 am 03:02 Cloudy with Light Rain 60 15.6 58 14.4 93 93 SSE 14 22 29.74 1007 7 11 0.01 0.25
3:52 am 03:52 Cloudy with Light Rain 60 15.6 58 14.4 93 93 SE 17 28 29.69 1005 8 13 0.07 1.78
4:52 am 04:52 Cloudy with Light Rain 60 15.6 58 14.4 93 93 SE 15 24 29.67 1005 10 16 0.06 1.52
5:52 am 05:52 Cloudy 61 16.1 58 14.4 90 90 SSE 15 24 29.65 1004 10 16 N/A
6:25 am 06:25 Cloudy with Light Rain 61 16.1 58 14.4 90 90 SE 14 22 29.62 1003 10 16 N/A
6:52 am 06:52 Cloudy with Light Rain 60 15.6 59 15 96 96 SSE 15 24 29.62 1003 7 11 N/A
7:34 am 07:34 Cloudy with Light Rain 61 16.1 59 15 93 93 SSE 16 26 29.59 1002 8 13 0.02 0.51
7:52 am 07:52 Cloudy with Light Rain 61 16.1 59 15 93 93 SE 15 24 29.60 1002 3 5 0.03 0.76
8:00 am 08:00 Cloudy with Light Rain 61 16.1 59 15 93 93 SE 16 26 29.59 1002 3 5 0.01 0.25
8:25 am 08:25 Cloudy with Light Rain 61 16.1 59 15 93 93 SE 21 33 29.56 1001 10 16 0.01 0.25
8:52 am 08:52 Cloudy 61 16.1 59 15 93 93 SSE 17 28 29.57 1001 10 16 0.01 0.25
9:30 am 09:30 Cloudy with Light Rain 61 16.1 59 15 93 93 W 16 26 29.56 1001 8 13 N/A
9:34 am 09:34 Cloudy with Rain 55 12.8 52 11.1 90 90 NW 20 31 29.62 1003 3 4 0.01 0.25
9:36 am 09:36 Cloudy with Heavy Rain 53 11.7 51 10.6 93 93 W 10 17 29.62 1003 2 2 0.03 0.76
9:39 am 09:39 Cloudy with Heavy Rain 53 11.7 51 10.6 93 93 SW 10 17 29.62 1003 0 0 0.09 2.29
9:46 am 09:46 Cloudy with Rain 52 11 48 9 88 88 WNW 31 50 29.65 1004 0 0 0.19 4.83
9:48 am 09:48 Cloudy with Rain 52 11 48 9 88 88 WNW 31 50 29.65 1004 1 2 0.20 5.08
9:52 am 09:52 Cloudy with Rain 52 11.1 49 9.4 89 89 WNW 31 50 29.62 1003 2 3 0.21 5.33
9:56 am 09:56 Cloudy with Light Rain 52 11.1 49 9.4 89 89 W 22 35 29.65 1004 3 5 0.01 0.25
10:28 am 10:28 Cloudy with Rain 51 10.6 49 9.4 92 92 W 14 22 29.65 1004 3 5 0.08 2.03
10:52 am 10:52 Cloudy with Rain 51 10.6 51 10.6 100 100 W 8 13 29.65 1004 4 6 0.11 2.79
11:32 am 11:32 Cloudy with Rain 51 10.6 51 10.6 100 100 W 3 6 29.65 1004 4 6 0.04 1.02
11:52 am 11:52 Cloudy with Rain 51 10.6 51 10.6 100 100 SW 5 7 29.66 1004 3 4 0.09 2.29
12:36 pm 12:36 Cloudy with Light Rain 52 11.1 52 11.1 100 100 SW 5 7 29.68 1005 4 6 0.14 3.56
12:52 pm 12:52 Cloudy with Light Rain 51 10.6 51 10.6 100 100 WSW 3 6 29.64 1004 4 6 0.15 3.81
1:52 pm 13:52 Cloudy with Light Rain 51 10.6 51 10.6 100 100 SW 6 9 29.65 1004 8 13 0.05 1.27
2:22 pm 14:22 Cloudy with Light Rain 51 10.6 51 10.6 100 100 SSW 6 9 29.65 1004 10 16 0.01 0.25
2:39 pm 14:39 Cloudy with Light Rain 51 10.6 51 10.6 100 100 W 5 7 29.65 1004 9 14 0.02 0.51
2:52 pm 14:52 Cloudy with Light Rain 52 11.1 52 11.1 100 100 W 3 6 29.61 1003 10 16 0.02 0.51
3:52 pm 15:52 Cloudy with Light Rain 47 8.3 47 8.3 100 100 W 16 26 29.65 1004 3 5 N/A
4:20 pm 16:20 Cloudy with Light Rain 47 8.3 47 8.3 100 100 W 13 20 29.65 1004 3 4 0.01 0.25
4:48 pm 16:48 Cloudy 48 9 46 8 94 94 W 12 19 29.65 1004 7 11 0.01 0.25
4:52 pm 16:52 Cloudy 48 8.9 48 8.9 100 100 W 12 19 29.65 1004 7 11 0.01 0.25
5:52 pm 17:52 Cloudy 50 10 45 7.2 83 83 WSW 9 15 29.63 1003 10 16 N/A
6:52 pm 18:52 Cloudy 50 10 42 5.6 74 74 W 9 15 29.67 1005 10 16 N/A
7:21 pm 19:21 Cloudy 49 9.4 40 4.4 71 71 WSW 9 15 29.68 1005 10 16 N/A
7:52 pm 19:52 Cloudy 48 8.9 39 3.9 71 71 WSW 10 17 29.68 1005 10 16 N/A
8:52 pm 20:52 Cloudy 47 8.3 37 2.8 69 69 W 15 24 29.70 1006 10 16 N/A
9:52 pm 21:52 Cloudy 46 7.8 37 2.8 71 71 W 8 13 29.71 1006 10 16 N/A
10:36 pm 22:36 Cloudy 46 7.8 37 2.8 71 71 W 14 22 29.71 1006 10 16 N/A
10:52 pm 22:52 Cloudy 45 7.2 37 2.8 74 74 WNW 15 24 29.73 1007 10 16 N/A
11:52 pm 23:52 Cloudy 44 6.7 36 2.2 73 73 WNW 14 22 29.74 1007 10 16 N/A

Powered by AerisWeather